Pasco, WA

5:58 AM PDT on July 23, 2017 (GMT -0700)
Tri-Cities

Weather History for KPSC - October, 2013

Change the Weather History Date:

Sunday, October 20, 2013

  Actual Average Record
Temperature  
Mean Temperature 51 °F 50 °F  
Max Temperature 70 °F 64 °F 78 °F (1981)
Min Temperature 32 °F 37 °F 26 °F (1996)
Degree Days  
Heating Degree Days 14 15  
Month to date heating degree days 289 223  
Since 1 July heating degree days 357 334  
Cooling Degree Days 0 0  
Month to date cooling degree days 0 0  
Year to date cooling degree days 995 709  
Growing Degree Days 2 (Base 50)    
Moisture  
Dew Point 38 °F    
Average Humidity 69    
Maximum Humidity 100    
Minimum Humidity 37    
Precipitation  
Precipitation 0.00 in 0.02 in 0.57 in (1968)
Month to date precipitation 0.03 0.43  
Year to date precipitation 4.34 6.31  
Snow  
Snow 0.00 in - - ()
Snow Depth 0.00 in    
Sea Level Pressure  
Sea Level Pressure 30.15 in    
Wind  
Wind Speed 2 mph (ENE)    
Max Wind Speed 7 mph    
Max Gust Speed 14 mph    
Visibility 9 miles    
Events Snow    
T = Trace of Precipitation, MM = Missing Value Source: NWS Daily Summary

Daily Weather History Graph

Daily Weather History Graph

Search for Another Location

Airport or City:

Trip Planner

Search our weather history database for the weather conditions in past years. The results will help you decide how hot, cold, wet, or windy it might be!

Date:

Astronomy

Oct. 20, 2013 Rise Set
Actual Time 7:21 AM PDT 6:00 PM PDT
Civil Twilight 6:50 AM PDT 6:31 PM PDT
Nautical Twilight 6:15 AM PDT 7:06 PM PDT
Astronomical Twilight 5:40 AM PDT 7:40 PM PDT
Moon 7:05 PM PDT (10/20) 9:09 AM PDT (10/20)
Length of Visible Light 11h 40m
Length of Day
10h 39m
Waning Gibbous, 97% of the Moon is Illuminated
Oct 20
Waning Gibbous
Oct 26
Last Quarter
Nov 3
New
Nov 9
First Quarter
Nov 17
Full

Hourly Weather History & Observations

Time (PDT) Temp. Windchill Dew Point Humidity Pressure Visibility Wind Dir Wind Speed Gust Speed Precip Events Conditions
12:53 AM 36.0 °F - 34.0 °F 93% 30.15 in 8.0 mi Calm Calm - N/A   Clear
1:53 AM 35.1 °F - 33.1 °F 92% 30.16 in 8.0 mi Calm Calm - 0.00 in Snow Light Snow
2:53 AM 37.0 °F 34.5 °F 35.1 °F 93% 30.16 in 10.0 mi East 3.5 mph - 0.00 in   Clear
3:53 AM 36.0 °F - 34.0 °F 93% 30.16 in 8.0 mi Calm Calm - 0.00 in   Clear
4:53 AM 33.1 °F 28.7 °F 32.0 °F 96% 30.16 in 7.0 mi NW 4.6 mph - N/A   Clear
5:53 AM 34.0 °F - 33.1 °F 96% 30.17 in 8.0 mi Calm Calm - N/A   Clear
6:53 AM 33.1 °F 30.0 °F 32.0 °F 96% 30.18 in 7.0 mi NNW 3.5 mph - N/A   Clear
7:53 AM 34.0 °F 29.8 °F 32.0 °F 92% 30.19 in 6.0 mi North 4.6 mph - N/A   Clear
8:53 AM 41.0 °F - 37.9 °F 89% 30.19 in 8.0 mi Calm Calm - N/A   Clear
9:53 AM 46.9 °F - 39.9 °F 77% 30.20 in 10.0 mi Calm Calm - N/A   Clear
10:53 AM 52.0 °F - 41.0 °F 66% 30.19 in 10.0 mi Calm Calm - N/A   Clear
11:53 AM 57.0 °F - 41.0 °F 55% 30.18 in 10.0 mi Calm Calm - N/A   Clear
12:53 PM 61.0 °F - 42.1 °F 50% 30.17 in 10.0 mi Calm Calm - N/A   Clear
1:53 PM 64.9 °F - 41.0 °F 42% 30.15 in 10.0 mi Variable 4.6 mph - N/A   Clear
2:53 PM 68.0 °F - 43.0 °F 40% 30.12 in 10.0 mi SSE 4.6 mph - N/A   Clear
3:53 PM 70.0 °F - 43.0 °F 38% 30.12 in 10.0 mi East 4.6 mph - N/A   Clear
4:53 PM 70.0 °F - 42.1 °F 36% 30.10 in 10.0 mi SE 5.8 mph - N/A   Clear
5:53 PM 64.9 °F - 41.0 °F 42% 30.09 in 10.0 mi ESE 5.8 mph - N/A   Clear
6:53 PM 60.1 °F - 41.0 °F 49% 30.09 in 10.0 mi Calm Calm - N/A   Clear
7:53 PM 54.0 °F - 42.1 °F 64% 30.11 in 10.0 mi East 4.6 mph - N/A   Clear
8:53 PM 50.0 °F - 42.1 °F 74% 30.12 in 10.0 mi Calm Calm - N/A   Clear
9:53 PM 46.0 °F - 39.9 °F 79% 30.12 in 9.0 mi Calm Calm - N/A   Clear
10:53 PM 44.1 °F - 39.0 °F 82% 30.13 in 10.0 mi Calm Calm - N/A   Clear
11:53 PM 41.0 °F 37.1 °F 37.9 °F 89% 30.14 in 10.0 mi NNW 5.8 mph - N/A   Clear